Location: Gunnison Valley Observatory
(38.5087°N, 106.9386°W)
Time: 05:49:09
(UTC-06:00)

Amateur Radio Satellites - All Passes

Search period start: 19 September 2014 05:19
Search period end: 20 September 2014 05:19
Location: Gunnison Valley Observatory, 38.5087°N, 106.9386°W

Satellite Date Start Highest point End Downlink Frequencies (MHz)
Time Altitude Azimuth
AO-7 19 Sep 05:25:53 05:34:09 68° 105° (ESE) 05:42:22 29.400 - 29.500 MHz
Uosat F 19 Sep 05:26:17 05:31:18 69° 102° (ESE) 05:36:18 435.120 FM
OPAL 19 Sep 05:29:36 05:34:34 47° 258° (WSW) 05:39:37 ?
PANSAT 19 Sep 05:36:30 05:38:30 14° 192° (SSW) 05:40:30 not established
KITSAT 1 19 Sep 05:59:56 06:07:45 56° 248° (WSW) 06:15:33 435.175 FM
RS-15 19 Sep 06:08:22 06:19:03 53° 310° (NW) 06:29:42 29.354 - 29.394 USB, Beacon 29.352 USB
STRAND 1 19 Sep 06:10:41 06:14:42 24° 66° (ENE) 06:18:43 ?
JAS-2 19 Sep 06:25:46 06:31:31 42° 99° (E) 06:37:57 435.800 - 435.900 CW/SSB, 435.910 FM
Hamsat 19 Sep 06:56:15 07:00:30 70° 101° (E) 07:04:41 145.90 MHz
Uosat F 19 Sep 07:06:59 07:09:29 14° 298° (WNW) 07:11:59 435.120 FM
SO-67 19 Sep 07:15:25 07:16:40 12° 92° (E) 07:17:55 435.3500 MHz FM
AO-7 19 Sep 07:19:42 07:26:16 27° 303° (WNW) 07:32:50 29.400 - 29.500 MHz
SO-50 19 Sep 07:24:13 07:28:50 43° 54° (NE) 07:33:28 436.795 FM
STRAND 1 19 Sep 07:48:57 07:53:39 38° 262° (W) 07:58:23 ?
JAS-2 19 Sep 08:11:16 08:16:26 31° 292° (WNW) 08:22:09 435.800 - 435.900 CW/SSB, 435.910 FM
MaSat-1 19 Sep 08:22:17 08:26:58 43° 108° (ESE) 08:31:41 437.345 MHz
RS-15 19 Sep 08:27:27 08:34:47 19° 340° (NNW) 08:42:10 29.354 - 29.394 USB, Beacon 29.352 USB
ISS 19 Sep 08:28:43 08:31:00 17° 23° (NNE) 08:33:16 145.800 FM
HO-68 19 Sep 08:43:35 08:47:28 15° 90° (E) 08:51:19 435.675 MHz FM
SO-67 19 Sep 08:46:40 08:49:49 33° 287° (WNW) 08:52:56 435.3500 MHz FM
UOSAT-12 19 Sep 09:04:50 09:09:14 37° 52° (NE) 09:13:34 437.025 FM, 437.400 FM
SO-50 19 Sep 09:05:28 09:09:07 22° 249° (WSW) 09:12:47 436.795 FM
MaSat-1 19 Sep 09:59:50 10:03:53 24° 304° (NW) 10:07:53 437.345 MHz
Oscar 11 19 Sep 10:04:20 10:07:40 21° 94° (E) 10:10:59 145.825 FM, Beacon 2401.500 USB
ISS 19 Sep 10:04:44 10:08:04 82° 220° (SW) 10:11:23 145.800 FM
UKube-1 19 Sep 10:20:02 10:24:12 43° 99° (E) 10:28:21 145.840 MHz, 145.915 MHz
HO-68 19 Sep 10:28:43 10:35:56 87° 287° (WNW) 10:43:07 435.675 MHz FM
UOSAT-12 19 Sep 10:45:25 10:49:10 24° 249° (WSW) 10:52:52 437.025 FM, 437.400 FM
RS-15 19 Sep 10:46:05 10:53:15 19° 18° (NNE) 11:00:32 29.354 - 29.394 USB, Beacon 29.352 USB
Sapphire 19 Sep 11:21:07 11:23:49 14° 103° (ESE) 11:26:31 437.095 MHz 1200 baud AX-25 AFSK
FUNcube-1 19 Sep 11:28:25 11:33:04 78° 102° (ESE) 11:37:38 145.950 - 145.970 MHz USB
Oscar 11 19 Sep 11:40:03 11:43:52 30° 290° (WNW) 11:47:38 145.825 FM, Beacon 2401.500 USB
PCSat 19 Sep 11:46:06 11:50:34 27° 108° (ESE) 11:55:04 145.825 MHz
UKube-1 19 Sep 11:57:21 12:00:02 16° 295° (WNW) 12:02:43 145.840 MHz, 145.915 MHz
JAS-1B 19 Sep 12:15:56 12:16:52 10° 55° (NE) 12:17:47 435.800 - 435.900 CW/SSB
HO-68 19 Sep 12:18:30 12:22:37 16° 305° (NW) 12:26:44 435.675 MHz FM
Oscar 19 19 Sep 12:57:17 13:01:27 25° 66° (ENE) 13:05:38 437.125 CW, 437.150 USB
RS-15 19 Sep 12:58:38 13:09:18 49° 49° (NE) 13:20:20 29.354 - 29.394 USB, Beacon 29.352 USB
Sapphire 19 Sep 13:01:11 13:06:33 71° 299° (WNW) 13:11:59 437.095 MHz 1200 baud AX-25 AFSK
FUNcube-1 19 Sep 13:07:51 13:08:45 11° 298° (WNW) 13:09:39 145.950 - 145.970 MHz USB
AO-27 19 Sep 13:15:55 13:19:04 17° 63° (ENE) 13:22:13 436.795 MHz FM
PCSat 19 Sep 13:28:44 13:33:46 39° 305° (NW) 13:38:51 145.825 MHz
Oscar 16 19 Sep 13:34:56 13:40:01 59° 73° (ENE) 13:45:08 437.025 USB, Beacon 2401.1428
AO-Echo 19 Sep 13:50:25 13:54:44 36° 71° (ENE) 13:59:01 ?
JAS-1B 19 Sep 13:57:49 14:06:20 59° 72° (ENE) 14:13:29 435.800 - 435.900 CW/SSB
Gurwin Techsat 1B 19 Sep 14:06:21 14:10:26 23° 66° (ENE) 14:14:32 435.225 FM
ITAMSAT 1 19 Sep 14:17:58 14:23:03 62° 73° (ENE) 14:28:10 435.822 SSB
Uribyol 2 19 Sep 14:22:09 14:27:17 73° 74° (ENE) 14:32:28 436.500 FM
AO-7 19 Sep 14:34:54 14:39:45 17° 51° (NE) 14:44:35 29.400 - 29.500 MHz
Oscar 19 19 Sep 14:35:47 14:40:34 37° 262° (W) 14:45:24 437.125 CW, 437.150 USB
TMSAT-1 19 Sep 14:42:39 14:47:26 36° 69° (ENE) 14:52:14 436.925 FM
Sapphire 19 Sep 14:48:58 14:50:59 12° 319° (NW) 14:52:59 437.095 MHz 1200 baud AX-25 AFSK
AO-27 19 Sep 14:52:58 14:58:03 60° 259° (W) 15:03:11 436.795 MHz FM
RS-15 19 Sep 15:11:10 15:21:41 50° 250° (WSW) 15:32:40 29.354 - 29.394 USB, Beacon 29.352 USB
Oscar 16 19 Sep 15:16:45 15:19:44 15° 268° (W) 15:22:44 437.025 USB, Beacon 2401.1428
AO-Echo 19 Sep 15:30:01 15:33:36 21° 265° (W) 15:37:09 ?
Gurwin Techsat 1B 19 Sep 15:45:06 15:50:06 42° 261° (W) 15:55:09 435.225 FM
JAS-1B 19 Sep 15:49:50 15:57:00 28° 264° (W) 16:03:20 435.800 - 435.900 CW/SSB
ITAMSAT 1 19 Sep 16:00:15 16:02:57 14° 269° (W) 16:05:39 435.822 SSB
Uribyol 2 19 Sep 16:05:23 16:07:16 12° 270° (W) 16:09:10 436.500 FM
AO-7 19 Sep 16:22:56 16:31:14 79° 70° (ENE) 16:39:32 29.400 - 29.500 MHz
TMSAT-1 19 Sep 16:23:02 16:27:23 26° 265° (W) 16:31:46 436.925 FM
Uosat F 19 Sep 16:38:05 16:43:05 81° 75° (ENE) 16:48:06 435.120 FM
JAS-2 19 Sep 16:41:22 16:43:04 12° 60° (ENE) 16:44:46 435.800 - 435.900 CW/SSB, 435.910 FM
OPAL 19 Sep 17:40:54 17:45:56 51° 102° (ESE) 17:50:51 ?
Saudisat 1A 19 Sep 17:43:44 17:48:07 81° 302° (WNW) 17:52:33 436.775 MHz
Hamsat 19 Sep 17:47:57 17:52:03 41° 73° (ENE) 17:56:09 145.90 MHz
MaSat-1 19 Sep 18:17:05 18:20:48 55° 62° (ENE) 18:23:59 437.345 MHz
AO-7 19 Sep 18:19:00 18:24:44 20° 267° (W) 18:30:31 29.400 - 29.500 MHz
JAS-2 19 Sep 18:22:12 18:27:31 78° 257° (WSW) 18:32:42 435.800 - 435.900 CW/SSB, 435.910 FM
KITSAT 1 19 Sep 18:32:48 18:39:05 26° 104° (ESE) 18:45:22 435.175 FM
HO-68 19 Sep 19:14:20 19:15:59 11° 51° (NE) 19:17:37 435.675 MHz FM
SO-67 19 Sep 19:17:39 19:21:02 55° 76° (ENE) 19:24:26 435.3500 MHz FM
OPAL 19 Sep 19:20:47 19:24:23 19° 298° (WNW) 19:27:56 ?
Hamsat 19 Sep 19:25:29 19:28:09 16° 268° (W) 19:30:51 145.90 MHz
Saudisat 1A 19 Sep 19:27:09 19:28:25 11° 320° (NW) 19:29:41 436.775 MHz
STRAND 1 19 Sep 20:00:27 20:05:37 81° 103° (ESE) 20:10:45 ?
Sapphire 19 Sep 20:09:50 20:11:33 11° 41° (NE) 20:13:15 437.095 MHz 1200 baud AX-25 AFSK
KITSAT 1 19 Sep 20:25:46 20:33:48 66° 302° (WNW) 20:41:52 435.175 FM
PCSat 19 Sep 20:35:21 20:39:09 19° 47° (NE) 20:42:55 145.825 MHz
HO-68 19 Sep 20:55:16 21:02:15 62° 70° (ENE) 21:09:17 435.675 MHz FM
Oscar 11 19 Sep 20:58:57 21:01:29 15° 65° (ENE) 21:04:02 145.825 FM, Beacon 2401.500 USB
UKube-1 19 Sep 21:14:20 21:18:09 32° 70° (ENE) 21:22:01 145.840 MHz, 145.915 MHz
SO-50 19 Sep 21:39:21 21:42:22 18° 109° (ESE) 21:45:26 436.795 FM
STRAND 1 19 Sep 21:42:09 21:44:05 12° 300° (WNW) 21:46:02 ?
Sapphire 19 Sep 21:50:36 21:56:01 67° 60° (ENE) 22:01:24 437.095 MHz 1200 baud AX-25 AFSK
PCSat 19 Sep 22:17:40 22:23:03 67° 246° (WSW) 22:28:24 145.825 MHz
FUNcube-1 19 Sep 22:23:15 22:27:29 51° 73° (ENE) 22:31:52 145.950 - 145.970 MHz USB
KITSAT 1 19 Sep 22:25:45 22:30:52 18° 325° (NW) 22:36:01 435.175 FM
Oscar 11 19 Sep 22:33:05 22:37:16 46° 261° (W) 22:41:29 145.825 FM, Beacon 2401.500 USB
HO-68 19 Sep 22:44:57 22:50:22 23° 266° (W) 22:55:49 435.675 MHz FM
UKube-1 19 Sep 22:51:09 22:54:23 20° 265° (W) 22:57:38 145.840 MHz, 145.915 MHz
UOSAT-12 19 Sep 23:16:34 23:19:07 15° 108° (ESE) 23:21:41 437.025 FM, 437.400 FM
SO-50 19 Sep 23:18:15 23:22:32 44° 306° (NW) 23:26:57 436.795 FM
Sapphire 19 Sep 23:35:49 23:38:49 15° 256° (WSW) 23:41:48 437.095 MHz 1200 baud AX-25 AFSK
FUNcube-1 20 Sep 00:02:03 00:04:11 13° 269° (W) 00:06:21 145.950 - 145.970 MHz USB
UOSAT-12 20 Sep 00:54:12 00:58:44 57° 304° (NW) 01:03:23 437.025 FM, 437.400 FM
Oscar 16 20 Sep 01:48:53 01:52:58 23° 94° (E) 01:57:01 437.025 USB, Beacon 2401.1428
JAS-1B 20 Sep 01:49:19 01:49:51 10° 89° (E) 01:50:24 435.800 - 435.900 CW/SSB
PANSAT 20 Sep 01:52:19 01:54:14 13° 167° (SSE) 01:56:08 not established
AO-Echo 20 Sep 02:00:16 02:02:30 13° 92° (E) 02:04:45 ?
Saudisat 1A 20 Sep 02:11:50 02:16:09 51° 55° (NE) 02:20:27 436.775 MHz
KITSAT 1 20 Sep 02:26:59 02:30:46 14° 28° (NNE) 02:34:32 435.175 FM
ITAMSAT 1 20 Sep 02:32:55 02:37:10 25° 95° (E) 02:41:25 435.822 SSB
Uribyol 2 20 Sep 02:36:49 02:41:21 29° 96° (E) 02:45:51 436.500 FM
ISS 20 Sep 02:45:49 02:49:08 74° 139° (SE) 02:52:27 145.800 FM
Oscar 19 20 Sep 02:48:24 02:53:36 87° 104° (ESE) 02:58:44 437.125 CW, 437.150 USB
TMSAT-1 20 Sep 03:01:00 03:04:12 16° 92° (E) 03:07:22 436.925 FM
AO-27 20 Sep 03:07:24 03:12:31 55° 101° (E) 03:17:38 436.795 MHz FM
RS-15 20 Sep 03:22:06 03:31:20 32° 105° (ESE) 03:40:24 29.354 - 29.394 USB, Beacon 29.352 USB
Oscar 16 20 Sep 03:27:38 03:32:24 39° 290° (WNW) 03:37:09 437.025 USB, Beacon 2401.1428
PANSAT 20 Sep 03:31:04 03:33:45 18° 180° (S) 03:36:26 not established
JAS-1B 20 Sep 03:35:34 03:41:18 80° 286° (WNW) 03:47:04 435.800 - 435.900 CW/SSB
AO-Echo 20 Sep 03:36:48 03:41:36 63° 286° (WNW) 03:46:32 ?
Saudisat 1A 20 Sep 03:52:48 03:55:17 15° 251° (WSW) 03:57:46 436.775 MHz
Gurwin Techsat 1B 20 Sep 04:02:24 04:07:45 87° 104° (ESE) 04:13:03 435.225 FM
ITAMSAT 1 20 Sep 04:11:57 04:16:43 37° 291° (WNW) 04:21:28 435.822 SSB
Uribyol 2 20 Sep 04:16:11 04:20:46 32° 292° (WNW) 04:25:21 436.500 FM
KITSAT 1 20 Sep 04:20:39 04:28:27 49° 53° (NE) 04:36:10 435.175 FM
ISS 20 Sep 04:23:48 04:26:10 18° 337° (NNW) 04:28:32 145.800 FM
AO-7 20 Sep 04:27:00 04:33:51 28° 96° (E) 04:40:38 29.400 - 29.500 MHz
Oscar 19 20 Sep 04:30:36 04:32:09 11° 300° (WNW) 04:33:42 437.125 CW, 437.150 USB
TMSAT-1 20 Sep 04:39:15 04:44:28 58° 287° (WNW) 04:49:39 436.925 FM
Uosat F 20 Sep 04:47:45 04:52:02 28° 96° (E) 04:56:18 435.120 FM
AO-27 20 Sep 04:48:09 04:51:34 18° 297° (WNW) 04:54:58 436.795 MHz FM
OPAL 20 Sep 04:54:11 04:59:20 78° 73° (ENE) 05:04:35 ?
PANSAT 20 Sep 05:11:23 05:13:17 13° 193° (SSW) 05:15:11 not established
